Location: Dal�� Lhota
(48.7500°N, 14.0167°E)
Time: 13:06:53
(UTC+00:00)

Transit 2A Rocket - All Passes

Search period start: 02 August 2021 00:00
Search period end: 12 August 2021 00:00
Orbit: 589 x 913 km, 66.7° (Epoch: 02 August)

Date Brightness Start Highest point End Pass type
(mag) Time Alt. Az. Time Alt. Az. Time Alt. Az.
02 Aug - 11:31:21 10° ESE 11:32:51 11° ESE 11:34:21 10° E daylight
02 Aug - 13:09:58 10° SSW 13:14:26 84° SE 13:19:20 10° NE daylight
02 Aug - 14:54:04 10° W 14:57:42 22° NNW 15:01:35 10° NNE daylight
02 Aug - 16:41:04 10° NNW 16:42:18 11° N 16:43:34 10° N daylight
02 Aug - 18:24:35 10° NNW 18:27:17 14° NNE 18:30:04 10° NE daylight
02 Aug - 20:06:25 10° NNW 20:11:24 36° NE 20:16:44 10° ESE visible
02 Aug - 21:48:51 10° NW 21:54:15 54° WSW 21:59:59 10° SSE visible
03 Aug - 12:27:36 10° SSW 12:31:54 49° ESE 12:36:34 10° NE daylight
03 Aug - 14:10:38 10° WSW 14:14:42 30° NW 14:19:07 10° NNE daylight
03 Aug - 15:57:03 10° NW 15:59:00 12° NNW 16:01:01 10° N daylight
03 Aug - 17:42:06 10° N 17:44:01 12° NNE 17:45:59 10° NE daylight
03 Aug - 19:23:56 10° NNW 19:28:29 27° NE 19:33:17 10° E visible
03 Aug - 21:06:07 10° NW 21:11:39 82° WSW 21:17:35 10° SSE visible
03 Aug - 22:50:13 10° WNW 22:53:35 16° WSW 22:57:03 10° SW visible
04 Aug - 11:45:38 10° S 11:49:29 29° ESE 11:53:35 10° NE daylight
04 Aug - 13:27:27 10° WSW 13:31:49 45° NW 13:36:36 10° NNE daylight
04 Aug - 15:13:05 10° NW 15:15:46 15° NNW 15:18:35 10° NNE daylight
04 Aug - 16:59:28 10° N 17:00:42 11° N 17:01:58 10° NNE daylight
04 Aug - 18:41:29 10° NNW 18:45:26 20° NNE 18:49:34 10° ENE daylight
04 Aug - 20:23:30 10° NNW 20:28:58 67° NE 20:34:51 10° SE visible
04 Aug - 22:06:41 10° WNW 22:11:14 26° WSW 22:16:02 10° SSW visible
05 Aug - 11:04:18 10° SSE 11:07:11 17° ESE 11:10:11 10° ENE daylight
05 Aug - 12:44:33 10° SW 12:49:03 71° NW 12:54:00 10° NNE daylight
05 Aug - 14:29:16 10° WNW 14:32:36 18° NNW 14:36:08 10° NNE daylight
05 Aug - 16:16:17 10° NNW 16:17:22 11° N 16:18:29 10° N daylight
05 Aug - 17:59:02 10° NNW 18:02:17 16° NNE 18:05:40 10° ENE daylight
05 Aug - 19:40:56 10° NNW 19:46:11 46° NE 19:51:49 10° ESE visible
05 Aug - 21:23:36 10° NW 21:28:48 40° WSW 21:34:18 10° S visible
06 Aug - 12:01:58 10° SSW 12:06:25 70° ESE 12:11:19 10° NE daylight
06 Aug - 13:45:41 10° W 13:49:32 25° NW 13:53:40 10° NNE daylight
06 Aug - 15:32:27 10° NNW 15:34:03 11° N 15:35:41 10° N daylight
06 Aug - 17:16:34 10° N 17:19:03 13° NNE 17:21:38 10° NE daylight
06 Aug - 18:58:26 10° NNW 19:03:18 33° NE 19:08:31 10° ESE visible
06 Aug - 20:40:47 10° NW 20:46:16 63° WSW 20:52:09 10° SSE visible
06 Aug - 22:26:09 10° W 22:27:58 11° WSW 22:29:49 10° WSW visible
07 Aug - 11:19:43 10° S 11:23:55 41° ESE 11:28:29 10° NE daylight
07 Aug - 13:02:20 10° WSW 13:06:34 35° NW 13:11:10 10° NNE daylight
07 Aug - 14:48:27 10° NW 14:50:46 13° NNW 14:53:09 10° N daylight
07 Aug - 16:34:01 10° N 16:35:46 11° N 16:37:33 10° NNE daylight
07 Aug - 18:15:57 10° NNW 18:20:19 24° NE 18:24:57 10° E daylight
07 Aug - 19:58:04 10° NW 20:03:39 86° ENE 20:09:37 10° SE visible
07 Aug - 21:41:46 10° WNW 21:45:42 19° WSW 21:49:46 10° SSW visible
08 Aug - 10:37:56 10° SSE 10:41:33 24° ESE 10:45:23 10° ENE daylight
08 Aug - 12:19:16 10° SW 12:23:44 53° NW 12:28:38 10° NNE daylight
08 Aug - 14:04:33 10° WNW 14:07:32 16° NNW 14:10:41 10° NNE daylight
08 Aug - 15:51:12 10° N 15:52:26 11° N 15:53:43 10° NNE daylight
08 Aug - 17:33:30 10° NNW 17:37:15 19° NNE 17:41:11 10° ENE daylight
08 Aug - 19:15:29 10° NNW 19:20:56 59° NE 19:26:46 10° SE visible
08 Aug - 20:58:27 10° NW 21:03:20 30° WSW 21:08:26 10° S visible
09 Aug - 09:56:58 10° SE 09:59:17 14° ESE 10:01:43 10° ENE daylight
09 Aug - 11:36:28 10° SW 11:41:00 85° NW 11:46:00 10° NE daylight
09 Aug - 13:20:50 10° W 13:24:25 21° NNW 13:28:14 10° NNE daylight
09 Aug - 15:07:45 10° NNW 15:09:06 11° N 15:10:29 10° N daylight
09 Aug - 16:51:02 10° NNW 16:54:04 15° NNE 16:57:14 10° NE daylight
09 Aug - 18:32:56 10° NNW 18:38:07 40° NE 18:43:38 10° ESE daylight
09 Aug - 20:15:29 10° NW 20:20:51 47° WSW 20:26:33 10° S visible
10 Aug - 10:54:00 10° SSW 10:58:25 58° ESE 11:03:16 10° NE daylight
10 Aug - 12:37:20 10° W 12:41:23 28° NW 12:45:45 10° NNE daylight
10 Aug - 14:23:51 10° NW 14:25:47 12° NNW 14:27:47 10° N daylight
10 Aug - 16:08:31 10° N 16:10:49 13° NNE 16:13:12 10° NE daylight
10 Aug - 17:50:26 10° NNW 17:55:11 29° NE 18:00:15 10° E daylight
10 Aug - 19:32:42 10° NW 19:38:17 73° WSW 19:44:15 10° SSE visible
10 Aug - 21:17:13 10° WNW 21:20:06 14° WSW 21:23:04 10° SW visible
11 Aug - 10:11:54 10° S 10:15:59 34° ESE 10:20:22 10° NE daylight
11 Aug - 11:54:05 10° WSW 11:58:27 40° NW 12:03:14 10° NNE daylight
11 Aug - 13:39:53 10° NW 13:42:31 14° NNW 13:45:16 10° NNE daylight
11 Aug - 15:25:52 10° N 15:27:30 11° N 15:29:11 10° NNE daylight
11 Aug - 17:07:58 10° NNW 17:12:10 22° NNE 17:16:37 10° E daylight
11 Aug - 18:50:03 10° NNW 18:55:38 76° NE 19:01:37 10° SE visible
11 Aug - 20:33:26 10° WNW 20:37:49 23° WSW 20:42:21 10° SSW visible
